NJE754W EGLF-EGLC

Flight info

Callsign NJE754W
Flight time N/A
Altitude 9000
Route GWC N859 EVEXU
Aircraft C700/M-SBDGHM1RWXY/LB2

Departure

Time 2026-04-22 18:54
Airport Farnborough Airport (EGLF)

Arrival

Time N/A
Airport London City Airport (EGLC)
Time Latitude Longitude Altitude Speed Heading
2026-04-22 18:33 51.27701 -0.78532 241 ft 0 kts 133°
2026-04-22 18:46 51.27700 -0.78531 241 ft 1 kts 133°
2026-04-22 18:46 51.27680 -0.78504 241 ft 8 kts 148°
2026-04-22 18:46 51.27620 -0.78434 241 ft 10 kts 142°
2026-04-22 18:46 51.27593 -0.78401 241 ft 0 kts 143°
2026-04-22 18:47 51.27567 -0.78379 241 ft 10 kts 178°
2026-04-22 18:47 51.27486 -0.78477 241 ft 28 kts 221°
2026-04-22 18:47 51.27363 -0.78648 241 ft 22 kts 220°
2026-04-22 18:47 51.27303 -0.78720 241 ft 0 kts 181°
2026-04-22 18:52 51.27299 -0.78720 241 ft 3 kts 178°
2026-04-22 18:53 51.27250 -0.78682 241 ft 13 kts 136°
2026-04-22 18:53 51.27260 -0.78591 241 ft 16 kts 62°
2026-04-22 18:53 51.27386 -0.78207 241 ft 84 kts 62°
2026-04-22 18:53 51.27435 -0.78059 241 ft 103 kts 62°
2026-04-22 18:54 51.27494 -0.77881 241 ft 122 kts 62°
2026-04-22 18:54 51.28816 -0.74004 2597 ft 232 kts 59°
2026-04-22 18:54 51.29136 -0.73059 3286 ft 228 kts 58°
2026-04-22 18:55 51.29522 -0.71930 3522 ft 255 kts 58°
2026-04-22 18:55 51.29913 -0.70799 3479 ft 287 kts 58°
2026-04-22 18:55 51.30381 -0.69466 3468 ft 316 kts 58°
2026-04-22 18:55 51.30909 -0.67972 3482 ft 342 kts 58°
2026-04-22 18:56 51.31454 -0.66428 3656 ft 358 kts 58°
2026-04-22 18:56 51.31812 -0.65392 3809 ft 366 kts 59°
2026-04-22 18:57 51.33106 -0.58017 4652 ft 454 kts 80°
2026-04-22 18:57 51.33124 -0.57884 4660 ft 456 kts 80°